Главная страница
METAR-TAF:

METAR-TAF

Аэропорты :

Форт-Мид, Мэриленд, США

широта: 39-05N, долгота: 076-46W, высота над уровнем моря: 46 м

Текущие метеонаблюдения

Эта сводка был подготовлена 31 минут назад, в 01:03 UTC
Ветер 8 Узел от северо-западный с порывами до 14 Узел
Температура 0°C
Влажность 69%
Давление 1023 hPa
Видимость: 16.1 км
ясное небо

METAR: KFME 130103Z AUTO 31008G14KT 10SM CLR 00/M05 A3021 RMK AO1

Время: 20:34 (01:34 UTC)


TAF: отсутствует

Метеонаблюдения и прогнозы для более 4000 аэропортов (сводки METAR и TAF).

Имеющиеся станции представлены на карте желтыми и красными точками.

Чтобы увидеть название станции, наведите на нее мышь.

Затем щелкните, чтобы увидеть метеонаблюдения и метеопрогнозы.

Управление картой: чтобы увеличить масштаб, щелкните зеленые кнопки с черным крестиком; чтобы уменьшить масштаб, щелкните зеленую кнопку с тире; для просмотра соседних карт щелкайте зеленые стрелки.


METAR-TAF: